Location: Kershaw
(34.5481°N, 80.5823°W)
Time: 17:30:46
(UTC+00:00)

Transit 2A - Pass Details

Date: 04 October 2022
Orbit: 598 x 959 km, 66.7° (Epoch: 06 December)

Event Time Altitude Azimuth Distance (km) Brightness Sun altitude
Rises 13:46:54 0° 324° (NW) 3,030 8.6 28.2°
Reaches altitude 10° 13:49:14 10° 317° (NW) 2,162 7.9 28.6°
Maximum altitude 13:53:50 40° 248° (WSW) 1,085 6.8 29.4°
Drops below altitude 10° 13:58:52 10° 180° (S) 2,373 9.1 30.3°
Sets 14:01:32 0° 173° (S) 3,363 9.8 30.8°
